Вернуться в каталог

A-SEANSAT-PG1

АктивенЛюбительское радиоSSO
NORAD 57197·PAYLOAD·🇲🇾 Malaysia

Запущен Jun 27, 2023 с Vostochny Cosmodrome

Loading…

Ближайшие Пролёты (ближайшие 24 часа)

TLE

СвежийSource: Space-Track

Эпоха: Sep 14, 2026, 21:40 UTC

1 57197U 23091AH  26257.90333566  .00019971  00000-0  50470-3 0  9997
2 57197  97.4994 329.5464 0007921 114.7951 245.4119 15.39805962178508

Отслеживайте A-SEANSAT-PG1 в реальном времени с AllMySat

Download on the App Store